Weather in Aksenovo

Russia / Vladimir Oblast     55°22′44″N   40°48′52″E
temp.,
°C
wind,
m/s
gust,
m/s
humid.,
%
clouds,
%
prec.,
mm/h
press.,
hPa
HPBL,
m
27 february, sat
sat2700:00+1w6139296 0.0 9981001
03:00+1w6129898 0.1 998867
06:00−2nw81396100 1.9 998737
09:00−11nnw61290100 2.3 1002726
12:00−10nnw5989100 0.1 1006695
15:00−9nnw4889100 0.1 1009625
18:00−9nnw3893100 0.1 1010519
21:00−12nnw379793 0.1 1012153
28 february, sun
sun2800:00−12nw249796 0.0 1013110
03:00−13nw249793 0.1 101489
06:00−13nnw249786 0.1 1014103
09:00−11nnw249584 0.2 1015225
12:00−8nnw249094 0.1 1015435
15:00−6nnw249197 0.1 1016524
18:00−7nnw2494100 0.1 1017157
21:00−11n229697 0.1 101921
1 march, mon
mon100:00−13n129778 0.0 102121
03:00−13nw119889 0.1 102320
06:00−13wnw229769 0.0 102320
09:00−10wsw119679 0.0 102470
12:00−4wsw359497 0.0 1023407
15:00−2wsw479199 0.1 1022666
18:00−2wsw4993100 0.1 1019611
21:00−1wsw51193100 0.1 1016757
2 march, tue
tue200:000w61295100 0.3 1013706
03:00+1w51293100 0.3 1009818
06:000w61198100 0.4 1006794
09:00+1nw51191100 1.5 1006972
12:00+1nw6129496 0.6 10061119
15:000nw6118798 0.8 10071232
18:00−1nw51194100 0.3 10081012
21:00−2nw41294100 0.4 1009839
3 march, wed
wed300:00−3nw5129399 0.1 1009877
03:00−5nw4139091 0.2 1010626
06:00−5nnw5129268 0.1 1011986
09:00−4nnw6128684 0.3 10141069
12:00−3nnw6118467 0.0 1015969
15:00−3nnw6118678 0.2 10161306
18:00−5nw3118886 0.1 1017387
21:00−7nw399489 0.1 1019223